Regional Weather Roundup
Issued by NWS

Home | Current Version | Previous Version | Graphics & Text | Print | Product List | Glossary On
Versions: 1 2 3 4 5 6 7 8 9 10 11 12 13 14 15 16 17 18 19 20 21 22 23 24 25 26 27 28
000
ASUS45 KCYS 260510
RWRWY

WYOMING REGIONAL WEATHER ROUNDUP
NATIONAL WEATHER SERVICE CHEYENNE WY
1100 PM MDT THU AUG 25 2016

NOTE:  "FAIR" INDICATES FEW OR NO CLOUDS BELOW 12,000 FEET
WITH NO SIGNIFICANT WEATHER AND/OR OBSTRUCTIONS TO VISIBILITY.

WYZ001-260600-
YELLOWSTONE NATIONAL PARK

CITY           SKY/WX    TMP DP  RH WIND       PRES   REMARKS
LK YELLOWSTONE   N/A     45  34  65 CALM      30.29R
W YELLOWSTONE  NOT AVBL

$$
WYZ002>013-054>058-071-098>099-260600-
NORTHERN WYOMING

CITY           SKY/WX    TMP DP  RH WIND       PRES   REMARKS
JACKSON        FAIR      46  30  53 CALM      30.19S
CODY           MOCLDY    54  43  66 CALM      30.19S
GREYBULL       CLOUDY    62  39  42 SE5       30.13S
WORLAND        FAIR      53  48  83 S7        30.15R
SHERIDAN       FAIR      53  46  77 W5        30.16F
BUFFALO        MOCLDY    57  41  55 CALM      30.21S
GILLETTE       FAIR      52  43  71 S9        30.19S
HULETT         FAIR      52  37  58 S3        30.21S
NEWCASTLE      FAIR      55  43  62 SE7       30.21S

$$
WYZ014>020-022>026-101>103-260600-
CENTRAL WYOMING

CITY           SKY/WX    TMP DP  RH WIND       PRES   REMARKS
BIG PINEY      FAIR      40  36  86 NW9       30.26R WCI  34
PINEDALE       FAIR      39  32  75 CALM      30.25F
DUBOIS         FAIR      45  36  70 W3        30.26R
LANDER         FAIR      52  46  80 NW8       30.20R
RIVERTON       MOCLDY    53  47  79 NE7       30.20S
CASPER         RAIN      53  51  93 W5        30.25S FOG
DOUGLAS        FAIR      53  46  77 E9        30.22S

$$
WYZ021-027>030-104>119-260600-
SOUTHERN WYOMING

CITY           SKY/WX    TMP DP  RH WIND       PRES   REMARKS
EVANSTON       FAIR      55  23  28 E10       30.22R
FORT BRIDGER   FAIR      54  32  43 E10       30.25R
ROCK SPRINGS   FAIR      52  37  56 E6        30.25R
DIXON          FAIR      54  32  43 CALM      30.24S
RAWLINS        FAIR      52  40  63 NE15G21   30.25R
SARATOGA       FAIR      50  41  71 N8        30.25R
LARAMIE        FAIR      51  42  71 S12       30.26S
CHEYENNE       FAIR      55  45  68 S8        30.25S
TORRINGTON     FAIR      55  45  68 E9        30.18S
PINE BLUFFS    FAIR      50  41  71 S12       30.23R

$$




USA.gov is the U.S. government's official web portal to all federal, state and local government web resources and services.